カタログに戻る

YZ-1 R/B

運用中MEO
NORAD 43625·ROCKET BODY·🇨🇳 China

打ち上げ Sep 19, 2018 から Xichang Satellite Launch Center

Loading…

次のパス (今後24時間)

TLE

最新Source: Space-Track

元期: Sep 13, 2026, 11:39 UTC

1 43625U 18072D   26256.48544183 -.00000021  00000-0  00000+0 0  9999
2 43625  56.5101  69.0860 0109651  67.5766 293.6090  1.77481554 51757

AllMySatでYZ-1 R/Bをリアルタイム追跡

Download on the App Store